Theta_e
305 305 305 304 304 304 303 302 302 302 302 301 301 301 300 300 300 299 297 296 296 296 297 297 297 298 297 297 298 296 294 295 291 293 297 298 298 298 301 302 302 301 302
304 304 304 304 304 303 302 302 302 301 301 301 300 300 299 299 299 298 295 294 293 293 295 295 296 298 296 296 294 293 294 293 292 289 292 294 294 297 298 298 301 301 299
303 303 303 303 302 302 301 301 301 300 300 300 299 299 298 298 298 296 294 292 292 293 294 294 295 296 294 293 293 291 291 292 290 288 287 291 292 294 294 296 295 295 296
302 302 302 302 302 301 301 300 300 300 299 299 299 299 299 298 296 295 293 292 291 292 294 295 296 295 292 290 290 291 291 288 288 286 286 287 288 290 292 289 289 291 289
301 301 301 301 301 300 300 299 299 299 299 299 298 298 298 297 292 291 291 291 291 291 293 295 295 295 294 291 289 288 288 287 286 285 284 285 285 285 285 289 287 288 288
301 301 300 300 300 299 299 298 297 298 298 298 297 297 296 296 290 290 289 289 291 291 291 292 293 293 291 291 290 290 289 287 285 285 284 284 285 286 287 286 286 284 282
301 300 299 300 299 298 298 297 296 296 297 296 296 296 296 296 290 289 288 290 290 290 290 290 290 291 290 289 289 289 289 289 289 287 285 285 285 287 287 286 285 285 284
299 298 299 299 299 297 297 296 295 297 296 296 295 296 295 294 289 289 288 289 288 289 289 288 288 288 289 289 288 287 288 288 288 288 287 287 288 288 287 287 286 286 287
298 298 298 298 298 297 294 290 296 296 295 295 295 295 294 294 290 289 289 289 288 287 289 289 289 288 289 289 287 285 285 285 289 289 289 289 289 289 289 287 285 285 284
299 298 298 299 297 296 296 295 296 296 296 295 295 295 293 292 290 290 289 289 287 287 287 287 288 288 287 288 286 284 283 284 286 286 287 287 288 289 290 289 288 285 284
300 299 298 298 297 297 296 296 296 295 296 295 294 293 292 291 290 290 290 288 286 284 284 285 287 287 287 287 287 285 285 286 286 286 286 287 287 287 287 288 289 288 285
300 299 298 298 297 295 295 295 295 294 293 291 290 288 290 290 289 290 289 288 287 285 285 285 286 287 287 287 286 287 287 286 286 286 286 286 285 285 287 288 288 288 288
299 298 298 298 297 296 294 293 293 293 290 289 288 286 287 289 288 289 288 287 287 285 286 286 286 286 286 286 287 287 286 287 286 285 284 285 285 287 288 288 287 287 288
297 297 298 296 296 295 295 294 292 290 289 287 286 285 285 286 286 287 287 287 286 285 285 285 284 284 286 286 286 287 286 287 286 285 285 286 286 286 286 287 287 287 286
297 297 297 296 294 294 294 293 292 292 290 287 286 286 285 284 285 287 287 285 285 285 284 285 285 286 285 285 285 286 286 287 286 287 286 285 285 286 286 287 287 286 285
296 296 297 294 293 293 292 291 292 289 288 287 287 286 286 287 287 287 287 287 286 286 284 285 284 284 284 284 284 285 286 286 286 287 286 285 285 285 285 286 286 285 284
296 296 295 293 292 291 291 290 288 290 288 287 287 286 286 286 287 287 287 287 286 286 284 284 283 283 284 284 285 285 285 286 286 286 286 285 285 285 285 285 285 284 285
297 288 295 294 293 293 292 290 288 287 286 287 289 287 288 287 287 287 287 286 285 285 284 283 283 284 284 284 285 285 285 285 285 285 285 285 285 285 284 284 284 284 284
297 294 293 293 293 290 290 288 288 288 287 287 287 286 286 287 287 286 287 285 284 283 284 283 284 284 284 285 285 285 285 284 284 284 285 285 285 285 284 284 285 284 284
297 289 292 293 291 290 290 288 288 287 287 286 286 285 285 284 284 284 285 284 284 284 284 284 284 284 284 284 284 284 284 284 284 284 285 285 285 285 284 284 284 284 284
296 291 289 290 289 289 289 288 288 287 286 286 285 285 282 284 284 284 284 283 284 284 284 284 284 284 284 284 285 284 284 284 284 284 284 284 285 284 285 285 285 285 284
295 292 291 289 289 289 289 288 286 286 286 285 285 284 282 285 285 284 284 284 284 285 285 285 284 284 284 284 284 284 283 283 283 284 284 285 285 285 285 285 285 284 282
295 292 290 289 289 286 286 286 286 286 285 285 285 284 284 284 284 283 284 284 284 285 285 285 284 284 285 285 285 284 284 283 283 284 284 284 284 285 285 285 283 282 283
292 290 289 288 288 287 287 286 286 283 284 284 284 284 284 284 285 285 284 284 284 285 285 285 285 284 285 285 285 285 284 284 284 285 285 285 285 285 285 283 283 283 283
291 289 289 288 287 286 286 285 284 284 284 284 283 283 283 284 284 285 284 284 284 284 284 284 285 285 285 284 285 284 284 284 284 285 286 286 285 284 283 283 283 283 283
290 289 288 288 287 286 285 284 284 283 282 282 282 282 283 283 283 285 284 283 283 283 284 284 285 285 285 285 285 283 283 284 284 285 285 286 285 283 283 283 283 282 283
Wind_Speed
4 5 5 5 6 6 5 5 5 6 6 6 7 7 7 7 7 6 8 10 10 10 9 9 10 9 7 7 6 7 9 10 12 11 11 13 15 16 14 10 10 10 9
4 4 5 5 5 5 5 6 6 6 6 6 6 6 7 7 6 7 10 10 11 12 11 11 11 9 9 6 7 10 8 11 11 17 13 12 15 16 16 16 11 10 11
4 3 4 4 5 5 5 5 5 5 6 6 6 6 7 7 7 8 9 10 11 11 11 11 12 10 8 8 8 8 9 8 11 12 13 12 12 12 14 14 12 13 11
3 2 5 3 3 4 4 4 5 5 5 6 6 6 6 7 6 7 9 10 11 11 11 12 10 9 10 9 9 10 10 10 12 13 12 12 11 12 11 12 13 11 14
4 2 4 3 1 4 3 3 4 5 5 5 6 6 6 6 6 6 7 10 11 12 11 12 9 12 6 13 9 10 11 11 11 13 14 14 13 12 13 11 12 12 13
5 4 3 2 0 4 3 3 5 5 5 5 6 6 6 6 6 8 7 9 12 11 12 12 12 14 14 17 18 14 11 12 13 12 12 14 15 13 11 12 11 10 14
5 5 4 3 0 3 3 5 5 5 5 5 5 5 6 5 7 9 11 9 10 11 13 12 12 11 15 16 18 15 14 15 16 14 16 14 16 14 15 15 14 14 13
7 6 5 4 2 3 1 2 3 4 4 5 5 5 5 4 8 8 9 10 10 12 12 13 15 17 16 15 14 15 15 15 14 12 14 15 14 15 15 15 16 15 12
7 6 5 3 2 1 2 3 4 4 4 4 5 6 6 4 5 7 11 10 11 13 13 14 15 16 18 19 15 17 17 14 13 18 19 22 23 25 21 12 10 10 10
7 6 5 3 1 1 2 3 3 4 5 4 6 6 8 8 10 10 12 8 11 11 14 14 16 15 22 22 18 16 16 14 13 14 15 16 16 15 19 12 10 10 10
7 5 5 3 1 1 1 2 3 4 5 5 6 7 8 7 9 12 11 8 9 13 13 12 12 20 24 27 27 15 16 17 17 13 12 10 10 10 9 8 9 9 9
7 6 5 4 1 1 2 3 3 4 5 6 6 5 4 5 6 8 9 12 18 14 14 13 14 25 28 27 21 22 23 16 9 9 9 9 9 8 9 9 11 10 9
7 6 5 4 3 0 2 2 3 4 3 4 4 5 5 4 5 8 10 16 18 12 12 18 26 26 25 18 17 19 14 8 8 9 10 10 8 8 10 9 8 8 9
8 6 5 5 3 1 1 2 1 1 2 3 4 5 6 6 5 5 8 9 14 13 14 13 15 17 14 11 11 10 8 8 9 9 9 9 8 7 8 7 8 7 7
9 7 5 4 3 1 1 0 1 1 1 3 4 4 5 6 5 11 12 10 13 14 15 10 9 10 11 11 10 10 9 9 10 8 8 8 9 8 8 7 6 7 7
8 5 5 4 2 0 1 2 5 9 7 8 10 8 7 10 15 14 13 20 23 22 10 10 11 10 11 12 12 11 10 11 9 9 9 8 8 8 8 7 7 5 8
7 7 5 5 3 3 2 2 2 2 8 10 12 13 15 15 13 10 19 20 20 15 8 9 10 11 11 11 11 11 12 11 12 9 9 8 8 7 8 7 6 7 7
6 4 7 5 5 4 3 1 2 2 3 2 4 8 3 2 7 14 19 16 9 9 8 10 10 11 11 11 11 11 11 11 10 10 9 8 7 6 7 7 7 8 6
7 5 5 4 3 3 1 2 3 2 2 2 3 3 4 7 9 14 13 7 9 9 9 10 10 10 10 11 11 11 11 11 11 10 9 7 6 6 7 7 7 8 4
5 7 6 5 3 3 3 2 2 2 2 2 2 2 3 5 7 8 8 7 8 8 9 10 10 9 10 11 11 11 11 11 10 9 8 7 6 6 7 7 5 3 5
7 5 7 4 3 3 2 0 1 1 2 2 2 1 6 5 6 7 8 8 8 9 10 10 10 9 10 10 10 11 11 11 10 9 7 7 7 7 6 4 3 4 4
7 7 5 4 3 2 2 0 2 2 3 3 3 2 5 5 5 8 8 8 8 9 9 10 9 9 9 10 10 11 12 11 10 9 8 7 7 5 4 3 4 4 3
7 7 6 4 4 5 3 2 2 1 2 3 3 4 3 5 5 8 7 8 9 9 9 8 9 9 9 9 9 9 9 10 10 9 7 6 5 4 3 3 2 3 4
7 6 5 4 4 3 3 2 1 3 4 2 3 5 5 6 6 7 7 7 9 9 8 9 9 11 11 10 10 8 9 9 9 8 8 4 3 4 3 4 4 5 5
7 6 5 4 4 4 3 2 2 1 2 3 3 5 6 7 7 7 7 7 8 8 11 10 9 11 12 15 13 13 14 14 10 10 5 4 4 4 3 3 3 5 6
8 7 5 4 4 5 4 4 4 3 2 2 4 5 6 7 7 7 7 8 8 10 12 9 11 14 14 11 11 16 14 13 10 9 5 3 3 3 3 4 6 3 5
Wind_Direction
93 85 65 48 39 44 42 29 27 3 356 354 360 356 359 4 352 10 10 5 350 343 341 344 337 332 335 328 351 345 330 313 315 315 320 328 321 320 319 322 319 312 326
108 77 61 53 40 37 33 18 15 6 350 353 358 354 356 358 344 30 13 0 349 344 338 336 332 328 328 351 346 329 322 327 322 323 325 326 320 323 326 324 329 337 341
89 94 80 51 42 29 26 11 7 0 342 0 352 357 357 354 357 24 8 355 341 332 331 327 319 319 354 346 347 344 324 338 325 312 314 313 316 321 323 319 335 329 329
133 125 97 61 35 41 26 5 4 354 350 358 350 353 356 343 36 10 1 346 338 328 326 314 317 1 356 8 343 332 338 322 318 313 311 313 311 316 319 324 319 322 325
155 159 117 104 72 60 27 357 4 359 354 344 349 352 344 329 39 17 356 346 331 325 317 324 336 351 1 357 340 329 320 317 313 313 311 312 312 315 315 313 311 313 316
172 154 127 142 83 81 358 12 17 358 346 344 348 344 347 354 56 42 15 338 327 329 327 339 338 330 346 326 322 298 285 299 299 303 302 301 300 303 304 310 306 312 312
165 165 165 170 202 87 356 32 4 335 326 333 337 329 348 348 80 47 2 336 338 338 336 337 328 324 325 320 317 313 305 292 281 291 296 294 299 304 306 307 305 298 295
180 173 173 179 209 135 75 26 333 301 327 322 316 342 342 43 73 34 346 350 337 330 327 324 321 321 320 320 326 317 309 304 298 296 294 296 292 293 293 293 293 288 283
191 176 178 162 208 309 132 214 269 307 308 307 331 337 336 3 109 23 358 343 330 325 326 323 315 314 316 325 314 311 308 301 294 290 290 293 293 290 286 288 282 287 291
183 174 157 169 205 295 8 338 301 311 311 330 325 337 2 5 9 14 354 336 329 327 321 317 313 310 320 316 312 310 303 298 302 300 298 294 288 284 284 276 288 293 294
152 153 163 164 186 263 340 302 318 312 330 331 347 4 354 360 351 348 339 349 341 328 320 320 317 317 315 311 308 302 292 294 296 293 290 290 293 290 285 277 271 278 287
141 165 170 178 205 343 1 305 327 351 2 350 338 334 320 323 340 329 353 352 336 326 318 313 312 311 309 307 305 294 290 294 295 294 297 296 292 292 290 287 278 272 262
159 175 175 171 181 125 304 4 23 20 329 305 320 333 329 337 336 340 350 329 331 323 309 304 307 308 305 301 293 297 301 297 299 299 301 298 293 289 293 289 286 276 274
175 183 168 166 190 99 235 81 268 257 296 333 341 323 319 322 321 335 323 324 328 323 311 307 300 295 296 300 308 307 304 301 299 293 291 294 295 298 299 297 299 301 299
183 181 174 142 169 204 44 217 278 308 261 275 284 290 303 302 301 311 317 322 328 315 315 307 311 319 320 319 317 314 313 311 309 301 296 299 302 302 298 301 298 299 301
182 167 141 120 128 242 231 271 231 228 229 227 246 247 269 269 290 303 320 326 327 317 318 319 325 323 320 320 318 318 316 315 315 308 302 298 299 304 306 308 298 303 303
172 157 140 142 153 194 219 240 270 291 228 239 251 257 258 260 292 315 341 325 319 319 329 325 323 321 317 317 318 321 321 318 317 312 308 307 304 306 310 308 305 306 300
164 153 142 161 177 189 213 95 354 285 301 289 248 241 315 320 334 347 329 325 327 330 326 322 319 317 316 319 320 319 318 320 319 318 311 308 307 307 310 306 309 303 309
164 150 137 152 157 116 73 263 247 267 279 290 310 350 9 359 339 331 320 326 324 323 321 319 316 317 318 317 318 318 319 318 317 316 317 315 313 309 312 308 306 313 329
144 117 135 136 148 184 209 229 256 283 291 295 305 317 337 331 332 331 333 326 321 317 314 314 317 317 316 316 317 320 321 320 321 320 317 317 319 312 309 314 322 30 60
132 131 136 130 185 199 209 278 266 301 290 289 300 360 304 328 317 328 330 324 319 316 315 313 313 318 315 314 318 322 322 322 324 323 319 321 317 320 322 332 21 54 66
143 140 152 157 175 170 196 280 24 282 283 309 303 312 314 318 316 327 324 320 315 307 308 310 314 314 312 317 319 319 326 325 324 322 316 318 322 324 342 17 55 57 57
153 150 155 161 165 140 148 210 232 307 312 297 308 315 315 309 318 322 319 320 313 308 309 312 310 312 313 318 318 315 321 322 319 313 309 316 326 343 4 37 38 46 72
148 150 154 160 147 148 165 162 211 261 266 297 313 311 304 308 306 307 317 319 310 308 313 313 309 309 313 320 321 323 322 321 318 318 323 327 342 350 26 47 47 57 78
153 152 158 156 148 158 168 189 224 260 278 289 300 297 306 307 303 306 322 321 316 320 317 315 313 315 319 321 318 330 326 327 326 329 337 348 9 19 34 48 63 75 84
155 153 148 154 159 163 182 205 232 243 258 295 304 306 303 300 304 307 325 323 321 318 317 316 314 317 321 320 324 332 330 329 331 331 335 354 18 21 31 63 80 75 78